Location: Unspecified
(40.7945°N, 0.0000°E)
Time: 19:17:02
(UTC+00:00)

Explorer 7 - Pass Details

Date: 18 June 2021
Orbit: 484 x 676 km, 50.3° (Epoch: 30 July)

Event Time Altitude Azimuth Distance (km) Brightness Sun altitude
Rises 23:48:49 0° 285° (WNW) 3,011 10.8 -25.7°
Reaches altitude 10° 23:51:33 10° 298° (WNW) 2,081 10.1 -25.7°
Maximum altitude 23:55:34 26° 355° (N) 1,285 9.3 -25.8°
Drops below altitude 10° 23:59:27 10° 52° (NE) 2,004 10.1 -25.8°
Sets 00:02:02 0° 65° (ENE) 2,875 10.8 -25.8°
